Hourly Data Report for October 03, 2017

All times are specified in Local Standard Time (LST). Add 1 hour to adjust for Daylight Saving Time where and when it is observed.

KENORA A
ONTARIO

49°47'18.000" N
94°21'47.000" W
409.70 m
6034076
71850
YQK

Download Data

Hourly Data (October 2017)
Hourly Data Report for October 3, 2017
Temp Definition
°C
Dew Point Temp Definition
°C
Rel Hum Definition
%
Wind Dir Definition
10's deg

Wind Spd Definition
km/h
Visibility Definition
km
Stn Press Definition
kPa
Hmdx Definition


Wind Chill Definition


Weather Definition


TIME
00:00 Legend Double Dagger 9.3 7.9 91 26 5 24.1 96.50     Mainly Clear
01:00 Legend Double Dagger 10.2 8.2 87 20 3 24.1 96.55     LegendNANA
02:00 Legend Double Dagger 10.4 8.2 86 27 4 24.1 96.54     LegendNANA
03:00 Legend Double Dagger 8.6 7.8 94 0 1 24.1 96.56     Mostly Cloudy
04:00 Legend Double Dagger 8.6 7.9 96 36 1 24.1 96.62     LegendNANA
05:00 Legend Double Dagger 8.9 8.1 95 12 5 24.1 96.59     LegendNANA
06:00 Legend Double Dagger 8.9 7.8 93 30 4 24.1 96.63     Mostly Cloudy
07:00 Legend Double Dagger 8.7 8.1 96 36 7 24.1 96.65     LegendNANA
08:00 Legend Double Dagger 9.3 8.4 94 3 4 24.1 96.69     LegendNANA
09:00 Legend Double Dagger 9.7 8.3 91 36 7 19.3 96.84     Rain
10:00 Legend Double Dagger 9.4 8.7 96 2 7 16.1 96.91     Rain
11:00 Legend Double Dagger 9.5 9.0 97 29 8 19.3 96.98     Rain
12:00 Legend Double Dagger 10.8 8.7 87 34 8 24.1 96.93     Mostly Cloudy
13:00 Legend Double Dagger 10.8 6.8 77 31 9 24.1 96.99     LegendNANA
14:00 Legend Double Dagger 11.1 7.7 80 28 7 24.1 97.02     LegendNANA
15:00 Legend Double Dagger 11.3 7.7 79 28 6 24.1 97.04     Cloudy
16:00 Legend Double Dagger 11.1 8.0 81 26 8 24.1 97.08     LegendNANA
17:00 Legend Double Dagger 10.8 8.4 85 26 7 24.1 97.14     LegendNANA
18:00 Legend Double Dagger 9.7 8.2 90 32 7 24.1 97.15     Mostly Cloudy
19:00 Legend Double Dagger 9.1 7.2 88 33 7 24.1 97.20     LegendNANA
20:00 Legend Double Dagger 7.8 7.2 96 12 4 24.1 97.24     LegendNANA
21:00 Legend Double Dagger 7.9 7.1 95 14 5 24.1 97.23     Mainly Clear
22:00 Legend Double Dagger 7.3 6.9 97 13 9 24.1 97.20     LegendNANA
23:00 Legend Double Dagger 7.8 7.1 95 13 7 24.1 97.15     LegendNANA

Notes on Data Quality.

Legend

  • E = Estimated
  • M = Missing
  • NA = Not Available
  • ‡ = Partner data that is not subject to review by the National Climate Archives
Date modified: